Ironwood, MI

3:50 AM CDT on March 23, 2017 (GMT -0500)
Gogebic-Iron County

Weather History for KIWD - September, 2012

Change the Weather History Date:

Tuesday, September 11, 2012

  Actual Average Record
Temperature  
Mean Temperature 71 °F -  
Max Temperature 80 °F 67 °F 96 °F (1998)
Min Temperature 62 °F 47 °F 35 °F (1999)
Cooling Degree Days 6    
Growing Degree Days 21 (Base 50)    
Moisture  
Dew Point 52 °F    
Average Humidity 43    
Maximum Humidity 59    
Minimum Humidity 37    
Precipitation  
Precipitation 0.00 in - - ()
Sea Level Pressure  
Sea Level Pressure 29.76 in    
Wind  
Wind Speed 14 mph (SSW)    
Max Wind Speed 22 mph    
Max Gust Speed 36 mph    
Visibility 10 miles    
Events      
Averages and records for this station are not official NWS values.
T = Trace of Precipitation, MM = Missing Value Source: NWS Daily Summary

Daily Weather History Graph

Daily Weather History Graph

Search for Another Location

Airport or City:

Trip Planner

Search our weather history database for the weather conditions in past years. The results will help you decide how hot, cold, wet, or windy it might be!

Date:

Astronomy

Sep. 11, 2012 Rise Set
Actual Time 6:33 AM CDT 7:19 PM CDT
Civil Twilight 6:03 AM CDT 7:49 PM CDT
Nautical Twilight 5:27 AM CDT 8:25 PM CDT
Astronomical Twilight 4:48 AM CDT 9:03 PM CDT
Moon 1:37 AM CDT (9/11) 4:41 PM CDT (9/11)
Length of Visible Light 13h 46m
Length of Day
12h 45m
Waning Crescent, 21% of the Moon is Illuminated
Sep 11
Waning Crescent
Sep 15
New
Sep 22
First Quarter
Sep 29
Full
Oct 8
Last Quarter

Hourly Weather History & Observations

Time (CDT) Temp. Heat Index Dew Point Humidity Pressure Visibility Wind Dir Wind Speed Gust Speed Precip Events Conditions
7:55 AM 62.6 °F - 48.2 °F 59% 29.83 in 10.0 mi SSW 15.0 mph 23.0 mph N/A   Clear
8:15 AM 64.4 °F - 48.2 °F 56% 29.83 in 10.0 mi SSW 13.8 mph 23.0 mph N/A   Clear
8:35 AM 64.4 °F - 48.2 °F 56% 29.83 in 10.0 mi SSW 16.1 mph 21.9 mph N/A   Clear
8:55 AM 66.2 °F - 48.2 °F 52% 29.83 in 10.0 mi SSW 15.0 mph 20.7 mph N/A   Clear
9:15 AM 66.2 °F - 50.0 °F 56% 29.83 in 10.0 mi SSW 13.8 mph 19.6 mph N/A   Clear
9:35 AM 66.2 °F - 50.0 °F 56% 29.83 in 10.0 mi SSW 11.5 mph 18.4 mph N/A   Clear
9:55 AM 68.0 °F - 50.0 °F 52% 29.83 in 10.0 mi SSW 9.2 mph 18.4 mph N/A   Clear
10:55 AM - - - N/A% - - North - - N/A   Unknown
11:15 AM - - - N/A% - - North - - N/A   Unknown
11:35 AM - - - N/A% - - North - - N/A   Unknown
11:55 AM - - - N/A% - - North - - N/A   Unknown
12:35 PM 75.2 °F - 55.4 °F 50% 29.79 in 10.0 mi SSW 12.7 mph 19.6 mph N/A   Unknown
12:55 PM 75.2 °F - 53.6 °F 47% 29.77 in 10.0 mi South 11.5 mph 17.3 mph N/A   Clear
1:15 PM 75.2 °F - 53.6 °F 47% 29.77 in 10.0 mi South 11.5 mph 18.4 mph N/A   Clear
1:35 PM 75.2 °F - 53.6 °F 47% 29.77 in 10.0 mi South 9.2 mph - N/A   Clear
1:55 PM 75.2 °F - 53.6 °F 47% 29.76 in 10.0 mi South 11.5 mph 17.3 mph N/A   Clear
2:15 PM 78.8 °F - 55.4 °F 44% 29.79 in 10.0 mi SW 12.7 mph 17.3 mph N/A   Clear
2:35 PM 80.6 °F 80.3 °F 53.6 °F 39% 29.78 in 10.0 mi SSW 9.2 mph - N/A   Clear
2:55 PM 80.6 °F 80.3 °F 53.6 °F 39% 29.77 in 10.0 mi SSW 16.1 mph 23.0 mph N/A   Clear
3:15 PM 80.6 °F 80.3 °F 53.6 °F 39% 29.78 in 10.0 mi SSW 13.8 mph 19.6 mph N/A   Clear
3:35 PM 78.8 °F - 53.6 °F 42% 29.76 in 10.0 mi SSW 9.2 mph - N/A   Clear
5:35 PM 80.6 °F 80.3 °F 53.6 °F 39% 29.72 in 10.0 mi South 12.7 mph - N/A   Clear
5:55 PM 80.6 °F 80.3 °F 53.6 °F 39% 29.72 in 10.0 mi South 11.5 mph 19.6 mph N/A   Clear
6:15 PM 80.6 °F 80.3 °F 53.6 °F 39% 29.72 in 10.0 mi South 13.8 mph 19.6 mph N/A   Clear
6:35 PM 80.6 °F 80.3 °F 53.6 °F 39% 29.71 in 10.0 mi South 16.1 mph 24.2 mph N/A   Clear
6:55 PM 80.6 °F - 51.8 °F 37% 29.71 in 10.0 mi South 15.0 mph 24.2 mph N/A   Clear
7:15 PM 80.6 °F - 51.8 °F 37% 29.71 in 10.0 mi South 15.0 mph 23.0 mph N/A   Clear
7:35 PM 80.6 °F - 51.8 °F 37% 29.72 in 10.0 mi South 16.1 mph 25.3 mph N/A   Clear
7:55 PM 80.6 °F - 51.8 °F 37% 29.73 in 10.0 mi South 15.0 mph 26.5 mph N/A   Clear
8:15 PM 80.6 °F - 51.8 °F 37% 29.73 in 10.0 mi South 17.3 mph 27.6 mph N/A   Clear
8:35 PM 78.8 °F - 51.8 °F 39% 29.74 in 10.0 mi South 15.0 mph 23.0 mph N/A   Clear
8:55 PM 80.6 °F - 51.8 °F 37% 29.74 in 10.0 mi South 13.8 mph 23.0 mph N/A   Clear
9:15 PM 78.8 °F - 51.8 °F 39% 29.74 in 10.0 mi South 16.1 mph 29.9 mph N/A   Clear
9:35 PM 78.8 °F - 51.8 °F 39% 29.75 in 10.0 mi South 15.0 mph 24.2 mph N/A   Clear
9:55 PM 78.8 °F - 51.8 °F 39% 29.75 in 10.0 mi South 15.0 mph 28.8 mph N/A   Clear
10:15 PM 78.8 °F - 51.8 °F 39% 29.75 in 10.0 mi South 17.3 mph 28.8 mph N/A   Clear
10:35 PM 78.8 °F - 51.8 °F 39% 29.75 in 10.0 mi South 21.9 mph 29.9 mph N/A   Clear
10:55 PM 78.8 °F - 51.8 °F 39% 29.76 in 10.0 mi SSW 18.4 mph 29.9 mph N/A   Clear
11:35 PM 77.0 °F - 51.8 °F 41% 29.76 in 10.0 mi SSW 16.1 mph 35.7 mph N/A   Clear
11:55 PM 77.0 °F - 51.8 °F 41% 29.76 in 10.0 mi SSW 17.3 mph 25.3 mph N/A   Clear